Location: Maccacari
(45.1333°N, 11.1333°E)
Time: 06:47:45
(UTC+00:00)

SR - Pass Details

Date: 25 January 2021
Orbit: 573 x 882 km, 66.7° (Epoch: 06 March)

Event Time Altitude Azimuth Distance (km) Brightness Sun altitude
Exits shadow 04:42:12 36° 324° (NW) 1,156 ? -21.2°
Drops below altitude 10° 04:46:42 10° 20° (NNE) 2,330 ? -20.4°
Sets 04:49:25 0° 29° (NNE) 3,314 ? -19.9°
